Location: Kernascl�den
(48.0062°N, 3.3198°W)
Time: 22:10:34
(UTC+00:00)

SJ 16-02 - Pass Details

Date: 21 January 2021
Orbit: 606 x 616 km, 75.0° (Epoch: 04 March)

Event Time Altitude Azimuth Distance (km) Brightness Sun altitude
Rises 19:02:29 0° 207° (SSW) 2,866 5.3 -20.7°
Reaches altitude 10° 19:04:44 10° 210° (SSW) 1,964 4.4 -21.1°
Maximum altitude 19:09:05 66° 293° (WNW) 672 1.6 -21.8°
Enters shadow 19:11:24 27° 8° (N) 1,186 2.6 -22.2°
